Meteo Giornale » Osservazioni meteo Gran Bretagna » Lydd

ore: 15:50 - Osservazioni Meteo Lydd
Lat. 50° 57' N Lon. 0° 56' E Alt. 3 metri s.l.m.

sereno Europe/London

19 °C

Sereno

Temp. 24 Ore

14 °C

20 °C

Sud-Ovest

37 Km/h

Dew point 15 °C

Umidità 77 %

Visibilità  10 Km

Il sole sorge alle ore 06:44

Il sole tramonta alle ore 18:51

Data e Ora Cielo e Fenomeni T °C DP °C Um. % Pres. hPa Vis. km Vento km/h
Oggi h: 15:50 sereno Sereno 19 15 77 1015 10 SO 37
Oggi h: 15:20 sereno Sereno 19 15 77 1016 10 SO 35.2
Oggi h: 14:50 sereno Sereno 19 14 72 1016 10 SO 35.2
Oggi h: 13:50 poco_nuvoloso Poco Nuvoloso 19 15 77 1016 10 SO 35.2
Oggi h: 13:20 poco_nuvoloso Poco Nuvoloso 20 15 72 1016 10 SO 37
Oggi h: 12:50 poco_nuvoloso Poco Nuvoloso 20 15 72 1016 10 SO 33.3
Oggi h: 12:20 poco_nuvoloso Poco Nuvoloso 20 15 72 1016 10 O/SO 31.5
Oggi h: 11:50 poco_nuvoloso Poco Nuvoloso 20 15 72 1016 10 SO 27.8
Oggi h: 10:50 poco_nuvoloso Poco Nuvoloso 19 15 77 1017 10 O/SO 22.2
Oggi h: 10:20 poco_nuvoloso Poco Nuvoloso 18 15 82 1017 10 O/SO 24
Oggi h: 09:50 poco_nuvoloso Poco Nuvoloso 18 15 82 1017 10 O 18.5
Oggi h: 09:20 poco_nuvoloso Poco Nuvoloso 17 15 88 1017 10 O 13
Oggi h: 08:20 poco_nuvoloso Poco Nuvoloso 15 14 93 1017 10 O 13
Oggi h: 07:50 nuvoloso Nuvoloso 15 14 93 1017 10 O 11.1
Oggi h: 07:20 nuvoloso Nuvoloso 14 14 100 1017 10 O 11.1
Oggi h: 06:50 sereno Sereno 14 13 93 1017 10 O 13
Oggi h: 06:20 nuvoloso Nuvoloso 14 13 93 1017 10 O 11.1
Oggi h: 05:20 molto_nuvoloso Molto Nuvoloso 14 13 93 1017 10 O 7.4
Oggi h: 04:50 coperto Coperto 15 14 93 1017 10 O 11.1
Oggi h: 04:20 molto_nuvoloso Molto Nuvoloso 15 14 93 1017 10 O 11.1
Oggi h: 03:50 nuvoloso Nuvoloso 14 14 100 1017 10 O 9.3
Oggi h: 03:20 coperto Coperto 15 15 100 1018 10 O/SO 13
Oggi h: 02:50 poco_nuvoloso Poco Nuvoloso 14 14 100 1018 10 O 7.4
Oggi h: 02:20 sereno Sereno 15 14 93 1018 10 O 11.1
Oggi h: 01:50 sereno Sereno 15 15 100 1018 10 O 11.1
Oggi h: 01:20 sereno Sereno 15 15 100 1018 10 O 11.1
Oggi h: 00:50 sereno Sereno 15 14 93 1018 10 O 9.3
Oggi h: 00:20 sereno Sereno 15 15 100 1019 10 O/SO 11.1
Ieri h: 23:50 sereno Sereno 15 15 100 1019 10 O 9.3
Ieri h: 22:50 sereno Sereno 16 15 93 1019 10 O/SO 13
Ieri h: 22:20 sereno Sereno 17 16 93 1019 10 O/SO 14.8
Ieri h: 21:20 sereno Sereno 17 16 93 1019 10 O 16.7
Ieri h: 20:50 sereno Sereno 17 15 88 1019 10 O/SO 14.8
Ieri h: 20:20 sereno Sereno 17 16 93 1019 10 O/SO 14.8
Ieri h: 19:50 sereno Sereno 17 16 93 1019 10 O/SO 16.7
Ieri h: 19:20 sereno Sereno 18 16 88 1019 10 O/SO 18.5
Ieri h: 18:50 sereno Sereno 18 17 93 1019 10 O/SO 18.5
Ieri h: 18:20 sereno Sereno 18 17 93 1019 10 O/SO 18.5
Ieri h: 17:50 poco_nuvoloso Poco Nuvoloso 19 16 82 1019 10 O/SO 24
Ieri h: 17:20 molto_nuvoloso Molto Nuvoloso 19 16 82 1019 10 SO 24
Ieri h: 16:50 molto_nuvoloso Molto Nuvoloso 19 16 82 1019 10 O/SO 18.5